EW1599 Weather Reports


Display with metric or nautical units.
time (UTC)temp
F
wind
direction
speed
MPH
gust
MPH
rain 1hr
in
rain 24hr
in
rain mn
in
humidity
%
barometer
mb
20210805153030 70 317 0.0 4.0 0.00 0.00 0.00 86 1013.9
20210805151602 70 119 1.0 5.0 0.00 0.00 0.00 87 1013.9
20210805150053 69 254 0.0 3.0 0.00 0.00 0.00 89 1013.9
20210805144528 69 38 0.0 5.0 0.00 0.00 0.00 88 1014.1
20210805143042 69 355 1.0 4.0 0.00 0.00 0.00 88 1014.0
20210805141535 69 284 1.0 7.0 0.00 0.00 0.00 90 1013.8
20210805140156 68 178 0.0 6.0 0.00 0.00 0.00 88 1013.7
20210805134519 68 73 1.0 6.0 0.00 0.00 0.00 88 1013.8
20210805133100 68 307 0.0 4.0 0.00 0.00 0.00 89 1013.7
20210805131519 68 65 2.0 6.0 0.00 0.00 0.00 88 1013.7
20210805130057 68 319 1.0 5.0 0.00 0.00 0.00 90 1013.4
20210805124524 67 146 0.0 4.0 0.00 0.00 0.00 91 1013.3
20210805123019 67 333 1.0 5.0 0.00 0.00 0.00 91 1013.2
20210805121510 66 321 0.0 4.0 0.00 0.00 0.00 92 1013.0
20210805120012 66 259 0.0 4.0 0.00 0.00 0.00 93 1013.0
20210805114515 66 220 0.0 5.0 0.00 0.00 0.00 93 1013.2
20210805113009 66 30 0.0 3.0 0.00 0.00 0.00 92 1013.4
20210805111515 66 9 0.0 3.0 0.00 0.00 0.00 93 1013.4
20210805110008 66 76 0.0 3.0 0.00 0.00 0.00 93 1013.4
20210805104506 66 277 0.0 1.0 0.00 0.00 0.00 93 1013.4
20210805103023 65 304 0.0 4.0 0.00 0.00 0.00 93 1013.3
20210805101511 65 5 0.0 1.0 0.00 0.00 0.00 93 1013.4
20210805100034 65 333 0.0 2.0 0.00 0.00 0.00 93 1013.3
20210805094521 65 277 0.0 1.0 0.00 0.00 0.00 94 1013.2
20210805093003 65 273 0.0 1.0 0.00 0.00 0.00 94 1013.2
20210805091502 65 273 0.0 1.0 0.00 0.00 0.00 94 1013.1
20210805090007 65 267 0.0 1.0 0.00 0.00 0.00 94 1013.2
20210805084709 65 300 0.0 1.0 0.00 0.00 0.00 94 1013.1
20210805083130 65 42 0.0 1.0 0.00 0.00 0.00 94 1013.0
20210805081643 65 341 0.0 1.0 0.00 0.00 0.00 94 1013.0
20210805080144 65 80 0.0 0.0 0.00 0.00 0.00 93 1013.1
20210805074603 65 80 0.0 1.0 0.00 0.00 0.00 93 1013.2
20210805073120 65 18 0.0 1.0 0.00 0.00 0.00 93 1013.4
20210805071632 65 18 0.0 4.0 0.00 0.00 0.00 93 1013.5
20210805070124 65 248 0.0 1.0 0.00 0.00 0.00 94 1013.6
20210805064621 66 248 0.0 0.0 0.00 0.00 0.00 94 1013.8
20210805063225 66 248 0.0 0.0 0.00 0.00 0.00 94 1014.0
20210805061642 66 248 0.0 1.0 0.00 0.00 0.00 94 1014.1
20210805060150 66 248 0.0 0.0 0.00 0.00 0.00 94 1014.3
20210805054606 66 248 0.0 0.0 0.00 0.00 0.00 93 1014.2
20210805053110 66 248 0.0 0.0 0.00 0.00 0.00 93 1014.2
20210805050129 66 248 0.0 0.0 0.00 0.00 0.00 93 1014.3
20210805044633 66 248 0.0 0.0 0.00 0.00 0.00 93 1014.4
20210805043053 66 248 0.0 0.0 0.00 0.00 0.00 93 1014.4
20210805041548 66 248 0.0 0.0 0.00 0.00 0.00 92 1014.5
20210805040044 66 248 0.0 1.0 0.00 0.00 0.00 92 1014.6
20210805034620 66 248 0.0 0.0 0.00 0.00 0.00 92 1014.8
20210805033051 66 248 0.0 0.0 0.00 0.00 0.00 91 1014.7
20210805031622 66 248 0.0 0.0 0.00 0.00 0.00 91 1014.7
20210805030054 67 41 0.0 2.0 0.00 0.00 0.00 91 1014.9
20210805024532 67 333 0.0 1.0 0.00 0.00 0.00 90 1015.2
20210805023056 67 333 0.0 1.0 0.00 0.00 0.00 90 1015.2
20210805021615 67 333 0.0 0.0 0.00 0.00 0.00 90 1015.3
20210805020104 67 333 0.0 1.0 0.00 0.00 0.00 90 1015.2
20210805014609 67 333 0.0 1.0 0.00 0.00 0.00 90 1015.3
20210805013051 67 333 0.0 1.0 0.00 0.00 0.00 90 1015.4
20210805011553 67 302 0.0 2.0 0.00 0.00 0.00 90 1015.2
20210805010104 67 77 1.0 5.0 0.00 0.00 0.00 90 1015.2
20210805004558 68 48 0.0 3.0 0.00 0.00 0.00 90 1015.1
20210805003110 68 164 0.0 3.0 0.00 0.00 0.00 89 1015.1
20210805001541 68 101 0.0 3.0 0.00 0.00 0.00 88 1015.1
20210805000119 69 135 0.0 2.0 0.00 0.00 0.00 85 1015.2
20210804234550 69 40 0.0 2.0 0.00 0.00 0.00 84 1015.1
20210804233031 69 127 0.0 2.0 0.00 0.00 0.00 84 1015.1
20210804231539 69 149 0.0 1.0 0.00 0.00 0.00 85 1015.1
20210804230034 70 84 0.0 2.0 0.00 0.00 0.00 84 1015.1
20210804224533 70 360 0.0 1.0 0.00 0.00 0.00 82 1015.1
20210804223027 70 15 0.0 1.0 0.00 0.00 0.00 80 1014.9
20210804221610 70 5 0.0 2.0 0.00 0.00 0.00 77 1014.8
20210804220038 71 153 0.0 0.0 0.00 0.00 0.00 78 1014.7
20210804214550 71 126 0.0 2.0 0.00 0.00 0.00 78 1014.8
20210804213027 71 336 0.0 1.0 0.00 0.00 0.00 82 1015.0
20210804211527 72 23 0.0 7.0 0.00 0.00 0.00 80 1014.8
20210804210041 71 22 0.0 2.0 0.00 0.00 0.00 77 1014.9
20210804204535 71 355 1.0 5.0 0.00 0.00 0.00 82 1014.6
20210804203027 71 360 0.0 3.0 0.00 0.00 0.00 82 1015.0
20210804201554 71 338 0.0 6.0 0.00 0.00 0.00 81 1014.9
20210804200055 71 93 0.0 1.0 0.00 0.00 0.00 80 1015.0
20210804194532 71 254 0.0 1.0 0.00 0.00 0.00 76 1015.4
20210804193043 71 180 0.0 1.0 0.00 0.00 0.00 73 1016.0
20210804191521 71 355 0.0 1.0 0.00 0.00 0.00 72 1015.7
20210804190035 71 355 0.0 2.0 0.00 0.00 0.00 74 1015.8
20210804184516 72 26 0.0 0.0 0.00 0.00 0.00 74 1016.0
20210804183014 72 26 0.0 1.0 0.00 0.00 0.00 73 1016.1
20210804181516 72 309 0.0 2.0 0.00 0.00 0.00 74 1016.1
20210804180016 72 214 0.0 1.0 0.00 0.00 0.00 74 1016.0
20210804174513 72 130 0.0 2.0 0.00 0.00 0.00 74 1015.9
20210804173011 72 167 0.0 2.0 0.00 0.00 0.00 76 1015.6
20210804171520 73 137 0.0 1.0 0.00 0.00 0.00 79 1015.9
20210804164517 72 165 0.0 2.0 0.00 0.00 0.00 78 1015.8
20210804163005 72 265 0.0 1.0 0.00 0.00 0.00 77 1015.8
20210804161503 71 263 0.0 2.0 0.00 0.00 0.00 80 1015.7
20210804160002 71 55 0.0 0.0 0.00 0.00 0.00 80 1015.6
20210804154506 71 55 0.0 1.0 0.00 0.00 0.00 81 1015.7